Iron Mountain, MI

2:28 PM CDT on June 25, 2017 (GMT -0500)
Ford

Weather History for KIMT - April, 2014

Change the Weather History Date:

Saturday, April 19, 2014

  Actual Average Record
Temperature  
Mean Temperature 37 °F -  
Max Temperature 50 °F 56 °F 83 °F (1987)
Min Temperature 24 °F 32 °F 12 °F (1983)
Degree Days  
Heating Degree Days 28    
Moisture  
Dew Point 26 °F    
Average Humidity 65    
Maximum Humidity 92    
Minimum Humidity 32    
Precipitation  
Precipitation 0.00 in - - ()
Sea Level Pressure  
Sea Level Pressure 30.33 in    
Wind  
Wind Speed 7 mph (SSE)    
Max Wind Speed 17 mph    
Max Gust Speed 28 mph    
Visibility 10 miles    
Events Rain    
Averages and records for this station are not official NWS values.
T = Trace of Precipitation, MM = Missing Value Source: NWS Daily Summary

Daily Weather History Graph

Daily Weather History Graph

Search for Another Location

Airport or City:

Trip Planner

Search our weather history database for the weather conditions in past years. The results will help you decide how hot, cold, wet, or windy it might be!

Date:

Astronomy

Apr. 19, 2014 Rise Set
Actual Time 5:59 AM CDT 7:44 PM CDT
Civil Twilight 5:27 AM CDT 8:16 PM CDT
Nautical Twilight 4:49 AM CDT 8:54 PM CDT
Astronomical Twilight 4:07 AM CDT 9:36 PM CDT
Moon No Moon Rise 9:10 AM CDT (4/19)
Length of Visible Light 14h 48m
Length of Day
13h 45m
Waning Gibbous, 78% of the Moon is Illuminated
Apr 19
Waning Gibbous
Apr 22
Last Quarter
Apr 29
New
May 6
First Quarter
May 14
Full

Hourly Weather History & Observations

Time (CDT) Temp. Windchill Dew Point Humidity Pressure Visibility Wind Dir Wind Speed Gust Speed Precip Events Conditions
12:54 AM 24.1 °F - 21.0 °F 88% 30.44 in 10.0 mi Calm Calm - N/A   Clear
1:54 AM 25.0 °F - 21.0 °F 85% 30.46 in 10.0 mi Calm Calm - N/A   Clear
2:54 AM 24.1 °F 19.7 °F 19.9 °F 84% 30.45 in 10.0 mi SW 3.5 mph - N/A   Scattered Clouds
3:54 AM 25.0 °F - 21.9 °F 88% 30.47 in 10.0 mi Calm Calm - N/A   Partly Cloudy
4:54 AM 26.1 °F 21.9 °F 24.1 °F 92% 30.47 in 10.0 mi SW 3.5 mph - N/A   Mostly Cloudy
5:54 AM 28.0 °F 24.2 °F 24.1 °F 85% 30.47 in 10.0 mi SE 3.5 mph - N/A   Clear
6:54 AM 27.0 °F 23.0 °F 24.1 °F 89% 30.46 in 10.0 mi SE 3.5 mph - N/A   Clear
7:54 AM 30.0 °F 22.4 °F 24.1 °F 79% 30.45 in 10.0 mi SSE 8.1 mph - N/A   Clear
8:54 AM 34.0 °F 25.0 °F 24.1 °F 67% 30.41 in 10.0 mi SE 12.7 mph - N/A   Clear
9:54 AM 37.0 °F 27.4 °F 26.1 °F 65% 30.40 in 10.0 mi SSE 17.3 mph 23.0 mph N/A   Clear
10:54 AM 39.9 °F 32.5 °F 26.1 °F 58% 30.40 in 10.0 mi SE 12.7 mph 19.6 mph N/A   Clear
11:54 AM 43.0 °F 35.7 °F 26.1 °F 51% 30.38 in 10.0 mi SSE 15.0 mph 21.9 mph N/A   Clear
12:54 PM 44.1 °F 37.4 °F 26.1 °F 49% 30.34 in 10.0 mi SSE 13.8 mph 24.2 mph N/A   Clear
1:54 PM 46.9 °F - 24.1 °F 41% 30.30 in 10.0 mi SSE 17.3 mph 25.3 mph N/A   Clear
2:54 PM 48.9 °F - 21.0 °F 33% 30.26 in 10.0 mi SSE 15.0 mph 24.2 mph N/A   Clear
3:54 PM 50.0 °F - 21.0 °F 32% 30.22 in 10.0 mi SE 16.1 mph 27.6 mph N/A   Clear
4:54 PM 50.0 °F - 25.0 °F 38% 30.20 in 10.0 mi SE 15.0 mph 27.6 mph N/A   Clear
5:54 PM 48.0 °F - 26.1 °F 42% 30.17 in 10.0 mi SE 16.1 mph 24.2 mph N/A   Clear
6:54 PM 46.9 °F - 27.0 °F 46% 30.20 in 10.0 mi SSE 11.5 mph 18.4 mph N/A   Overcast
7:54 PM 46.0 °F 41.9 °F 28.9 °F 51% 30.20 in 10.0 mi SSE 8.1 mph - N/A   Overcast
8:54 PM 44.1 °F 38.6 °F 32.0 °F 63% 30.18 in 10.0 mi SSE 10.4 mph - 0.00 in Rain Light Rain
9:54 PM 44.1 °F 40.1 °F 32.0 °F 63% 30.18 in 10.0 mi SSE 6.9 mph - 0.00 in   Overcast
10:54 PM 41.0 °F 36.4 °F 36.0 °F 82% 30.18 in 8.0 mi SE 6.9 mph - 0.00 in Rain Light Rain
11:54 PM 39.9 °F 35.1 °F 37.0 °F 89% 30.15 in 7.0 mi SE 6.9 mph - 0.00 in Rain Light Rain